Location: Marsån
(66.4167°N, 22.2833°E)
Time: 11:47:27
(UTC+00:00)

SPOT 3 Rocket - Pass Details

Date: 24 February 2024
Orbit: 777 x 793 km, 98.6° (Epoch: 15 April)

Event Time Altitude Azimuth Distance (km) Brightness Sun altitude
Exits shadow 19:45:33 50° 203° (SSW) 1,004 3.9 -25.5°
Maximum altitude 19:46:40 63° 254° (WSW) 885 3.8 -25.6°
Drops below altitude 10° 19:51:52 10° 336° (NNW) 2,372 6.9 -26.0°
Sets 19:54:15 0° 340° (NNW) 3,307 7.7 -26.2°
